Greenville/Spartanburg, SC

6:27 PM EDT on March 27, 2017 (GMT -0400)
Greenville-Spartanburg International

Weather History for KGSP - April, 2011

Change the Weather History Date:

Friday, April 8, 2011

  Actual Average Record
Temperature  
Mean Temperature 66 °F 59 °F  
Max Temperature 81 °F 71 °F 85 °F (2001)
Min Temperature 50 °F 46 °F 24 °F (2007)
Degree Days  
Heating Degree Days 0 7  
Month to date heating degree days 63 63  
Since 1 July heating degree days 3070 2896  
Cooling Degree Days 1 1  
Month to date cooling degree days 3 8  
Year to date cooling degree days 19 16  
Growing Degree Days 16 (Base 50)    
Moisture  
Dew Point 54 °F    
Average Humidity 66    
Maximum Humidity 81    
Minimum Humidity 51    
Precipitation  
Precipitation 0.00 in 0.12 in 1.68 in (1914)
Month to date precipitation 0.96 0.93  
Year to date precipitation 14.44 13.24  
Snow  
Snow 0.00 in 0.00 in 0.00 in ()
Month to date snowfall T 0.0  
Since 1 July snowfall 8.8 4.7  
Snow Depth 0.00 in    
Sea Level Pressure  
Sea Level Pressure 29.97 in    
Wind  
Wind Speed 9 mph (SW)    
Max Wind Speed 22 mph    
Max Gust Speed 29 mph    
Visibility 10 miles    
Events      
T = Trace of Precipitation, MM = Missing Value Source: NWS Daily Summary

Daily Weather History Graph

Daily Weather History Graph

Search for Another Location

Airport or City:

Trip Planner

Search our weather history database for the weather conditions in past years. The results will help you decide how hot, cold, wet, or windy it might be!

Date:

Astronomy

Apr. 08, 2011 Rise Set
Actual Time 7:06 AM EDT 7:55 PM EDT
Civil Twilight 6:40 AM EDT 8:21 PM EDT
Nautical Twilight 6:10 AM EDT 8:51 PM EDT
Astronomical Twilight 5:39 AM EDT 9:22 PM EDT
Moon 10:01 AM EDT (4/8) No Moon Set
Length of Visible Light 13h 40m
Length of Day
12h 48m
Waxing Crescent, 22% of the Moon is Illuminated
Apr 8
Waxing Crescent
Apr 11
First Quarter
Apr 17
Full
Apr 24
Last Quarter
May 3
New

Hourly Weather History & Observations

Time (EDT) Temp. Heat Index Dew Point Humidity Pressure Visibility Wind Dir Wind Speed Gust Speed Precip Events Conditions
12:53 AM 59.0 °F - 42.1 °F 53% 30.01 in 10.0 mi SSW 4.6 mph - N/A   Clear
1:53 AM 54.0 °F - 44.1 °F 69% 30.01 in 10.0 mi WSW 5.8 mph - N/A   Clear
2:53 AM 55.9 °F - 44.1 °F 64% 29.99 in 10.0 mi SW 8.1 mph - N/A   Clear
3:53 AM 57.0 °F - 43.0 °F 59% 29.98 in 10.0 mi SSW 4.6 mph - N/A   Clear
4:53 AM 57.0 °F - 43.0 °F 59% 29.99 in 10.0 mi SW 4.6 mph - N/A   Clear
5:53 AM 52.0 °F - 45.0 °F 77% 30.00 in 10.0 mi Calm Calm - N/A   Partly Cloudy
6:53 AM 54.0 °F - 46.0 °F 75% 30.00 in 10.0 mi South 6.9 mph - N/A   Mostly Cloudy
7:53 AM 57.0 °F - 46.9 °F 69% 30.04 in 10.0 mi SSW 6.9 mph - N/A   Partly Cloudy
8:53 AM 59.0 °F - 48.0 °F 67% 30.04 in 10.0 mi South 3.5 mph - N/A   Clear
9:53 AM 61.0 °F - 50.0 °F 67% 30.03 in 10.0 mi South 8.1 mph - N/A   Clear
10:53 AM 68.0 °F - 54.0 °F 61% 30.02 in 10.0 mi Variable 6.9 mph - N/A   Clear
11:53 AM 70.0 °F - 57.0 °F 63% 30.01 in 10.0 mi SSW 5.8 mph - N/A   Clear
12:53 PM 78.1 °F - 61.0 °F 56% 29.98 in 10.0 mi WSW 15.0 mph 21.9 mph N/A   Clear
1:53 PM 80.1 °F 81.2 °F 62.1 °F 54% 29.96 in 10.0 mi WSW 12.7 mph 26.5 mph N/A   Clear
2:53 PM 80.1 °F 81.1 °F 61.0 °F 52% 29.93 in 10.0 mi SW 19.6 mph 26.5 mph N/A   Partly Cloudy
3:53 PM 79.0 °F - 62.1 °F 56% 29.93 in 10.0 mi WSW 15.0 mph - N/A   Mostly Cloudy
4:53 PM 79.0 °F - 61.0 °F 54% 29.92 in 10.0 mi WSW 16.1 mph 26.5 mph N/A   Mostly Cloudy
5:53 PM 78.1 °F - 61.0 °F 56% 29.92 in 10.0 mi WSW 15.0 mph 18.4 mph N/A   Partly Cloudy
6:53 PM 77.0 °F - 62.1 °F 60% 29.90 in 10.0 mi SW 11.5 mph 20.7 mph N/A   Clear
7:53 PM 73.9 °F - 62.1 °F 66% 29.91 in 10.0 mi SW 9.2 mph - N/A   Clear
8:53 PM 73.0 °F - 63.0 °F 71% 29.92 in 10.0 mi SW 8.1 mph - N/A   Clear
9:53 PM 71.1 °F - 63.0 °F 75% 29.94 in 10.0 mi SW 6.9 mph - N/A   Clear
10:53 PM 69.1 °F - 63.0 °F 81% 29.95 in 10.0 mi SW 8.1 mph - N/A   Clear
11:53 PM 68.0 °F - 63.0 °F 84% 29.95 in 10.0 mi SW 6.9 mph - N/A   Clear